Flag for Switzerland Weather past 2 weeks in Schaffhausen, Schaffhausen, Switzerland

Now
64 °F

Mild.


Feels Like: 64 °F
Forecast: 55 / 70 °F
Wind: 3 mph from Southwest

Location: Zurich-Kloten

Current Time: Sep 20, 2014 at 11:02:15 AM

Latest Report: Sep 20, 2014 at 10:00 AM


Visibility: N/A

Pressure: 30.01 "Hg

Humidity: 88%

Dew point: 61 °F

Location of SchaffhausenLocation

Historic Weather in Schaffhausen — Graph

°F

Schaffhausen temperature yesterday

Maximum temperature yesterday: 73 °F (at 4:00 PM)
Minimum temperature yesterday: 58 °F (at 7:00 AM)
Average temperature yesterday: 65 °F

Past Weeks' High & Low Weather Summary

 TemperatureHumidityPressure
High80 °F (Sep 8, 4:00 PM)100% (Sep 6, 8:00 AM)30.16 "Hg (Sep 6, 8:00 AM)
Low49 °F (Sep 12, 6:00 AM)44% (Sep 7, 4:00 PM)29.81 "Hg (Sep 17, 5:00 PM)
Average62 °F82%29.98 "Hg
* Reported Sep 5 9:00 AM — Sep 20 9:00 AM, Schaffhausen, Weather by CustomWeather, © 2014

Note: Actual official high and low records may vary slightly from our data, if they occured in-between our weather recording intervals... More about our weather records

Advertising

Schaffhausen weather history for previous 24 hours

 ConditionsComfort  
Time TempWeatherWind HumidityBarometerVisibility
9:00 AM
Sep 20
62 °FCool.1 mph96%30.01 "HgN/A
8:00 AM60 °FPartly sunny.3 mph97%30.01 "Hg5 mi
7:00 AM61 °FCool.6 mph97%30.00 "HgN/A
6:00 AM61 °FCool.2 mph98%29.98 "HgN/A
5:00 AM60 °FFog.1 mph98%30.00 "Hg6 mi
4:00 AM60 °FCool.3 mph98%30.01 "HgN/A
3:00 AM60 °FCool.3 mph98%30.01 "HgN/A
2:00 AM62 °FSprinkles. Overcast.6 mph97%30.00 "Hg8 mi
1:00 AM62 °FMild.2 mph96%30.00 "HgN/A
12:00 AM63 °FMild.2 mph96%30.01 "HgN/A
11:00 PM
Sep 19
64 °FRain showers. Overcast.3 mph93%30.00 "Hg6 mi
10:00 PM63 °FMild.3 mph93%29.98 "HgN/A
9:00 PM65 °FMild.2 mph83%29.97 "HgN/A
8:00 PM66 °FPassing clouds.1 mph80%29.95 "Hg16 mi
7:00 PM68 °FMild.3 mph74%29.95 "HgN/A
6:00 PM71 °FMild.3 mph63%29.93 "HgN/A
5:00 PM72 °FOvercast.5 mph59%29.92 "Hg16 mi
4:00 PM73 °FMild.2 mph61%29.92 "HgN/A
3:00 PM73 °FMild.5 mph69%29.92 "HgN/A
2:00 PM73 °FOvercast.5 mph64%29.93 "Hg12 mi
1:00 PM72 °FMild.2 mph66%29.94 "HgN/A
12:00 PM72 °FMild.1 mph65%29.93 "HgN/A
11:00 AM68 °FFog.2 mph81%29.95 "Hg5 mi
Weather by CustomWeather, © 2014

See weather overviewHow to use our weather pages